Location: Newport
(44.6370°N, 124.0520°W)
Time: 23:04:49
(UTC-08:00)

Tiangong 2 - Pass Details

Date: 10 October 2017
Orbit: 386 x 390 km, 42.8° (Epoch: 12 December)

Event Time Altitude Azimuth Distance (km) Brightness Sun altitude
Exits shadow 05:41:56 24° 173° (S) 867 2.8 -19.2°
Maximum altitude 05:42:29 25° 156° (SSE) 838 2.9 -19.1°
Drops below altitude 10° 05:45:10 10° 99° (E) 1,424 5.0 -18.6°
Sets 05:47:28 0° 86° (E) 2,283 6.7 -18.2°
